OBJECT A, 54251

Orbit data source: Space-Track

You're viewing an Uncataloged Satellite

Recently launched and/or uncataloged satellites may have evolving metadata. Metadata may include but not limited to: Owner, Maufacturer, Bus, Motor, and Mission.

OBJECT A, 54251 is a Chinese satellite in SSO that was launched on Wed, 16 Nov 2022 UTC via a GUSHENXING 1 launch vehicle from the Jiuquan Satellite Launch Center, China (JSC). Unknown objects in Earth's orbit typically refer to objects detected orbiting the Earth but have not yet been identified or cataloged. These objects could be anything from previously untracked satellites, spent rocket stages, debris from satellite collisions, or even natural meteoroids temporarily captured by Earth's gravity.

Loading next visibility...
Identifier
54251, 2022-155A
Orbit
SSO
Country
Flag of CNCN / PRC
Related business
None
Manufacturer
Unknown
Mission
Operational Commercial Imaging
Bus & Motor
Unknown
Mass
Unknown
Launch date (UTC)
2022-11-16 (4 years ago)
Launch vehicle
GUSHENXING 1
Launch site
Jiuquan Satellite Launch Center, China (JSC)
Object type
Unknown
Shape & HBR
Box + 2 Pan, 0.8 m
Radar Cross Section
2.000 m², Medium (>0.1 m² and < 1m²)

Expand to show TLE details & history
Last TLE update: 22 hours ago

TLE from 22 hours ago
0 OBJECT A
1 54251U 22155A   26172.51237800  .00050432  00000-0  51624-3 0  9991
2 54251  97.6209 318.2536 0002767 321.6694  38.4368 15.64854382200496
Epoch: 2026-06-21T12:17Z
TLE epoch observation values (Epoch: 2026-06-21T12:17:49.459Z)
Latitude
0.00002°
Longitude
-135.91407°
Altitude
375.339 km
Speed
7.685 km/s
True Right ascension
21h 13m 00s
True Declination
0° 00' 00"
Sunlit
Object was in full shadow at epoch
Visualization orbit readout
Latitude
Unknown
Longitude
Unknown
Altitude
Unknown
Speed
Unknown
Apparent Right ascension
Unknown
Apparent Declination
Unknown
Sunlit
N/A
Visualization observer readout
Local Sidereal Time
21:31:58
Azimuth
Unknown
Elevation
Unknown
Doppler factor
Unknown
Orbital elements
Apogee altitude
372.441 km
Perigee altitude
368.706 km
Semi-major axis
6,748.71 km
Eccentricity
0.00028
Inclination
97.6209°
RAAN
318.2536°
Arg. of periapsis
321.6694°
True anomaly
38.45652°
Mean anomaly
38.4368°
Eccentric anomaly
38.44666°
Mean motion
3.91482 °/min
Orbital period
91.96 mins
BSTAR
0.00051624
Loading maneuver chart data...
Computing Atmospheric mass density...
Loading historical data...
Loading historical data...
Loading historical data...
Loading historical data...
Loading historical data...
Loading historical data...
Loading historical data...
Other satellites on launch #155 in the year 2022 (2022-11-16 UTC)

Documentation

Showing up to 5 results
|